Regional Weather Roundup
Issued by NWS

Home | Current Version | Previous Version | Graphics & Text | Print | Product List | Glossary On
Versions: 1 2 3 4 5 6 7 8 9 10 11 12 13 14 15 16 17 18 19 20 21 22 23 24 25 26 27 28 29 30 31 32 33 34 35 36 37 38 39 40 41 42 43 44 45 46 47 48 49 50
000
ASUS43 KOAX 251810
RWRNE

WEATHER ROUNDUP FOR NEBRASKA
NATIONAL WEATHER SERVICE OMAHA NE
100 PM CDT WED APR 25 2018

NOTES: SATELLITE DATA IS BEING USED TO AUGMENT CLOUD COVER ABOVE
       12000 FEET.
       "FAIR" INDICATES FEW OR NO CLOUDS BELOW 12,000 FEET WITH NO
       SIGNIFICANT WEATHER AND/OR OBSTRUCTIONS TO VISIBILITY.


NEZ001>004-019>022-054>056-251900-
NEBRASKA PANHANDLE

CITY           SKY/WX    TMP DP  RH WIND       PRES   REMARKS
SCOTTSBLUFF    SUNNY     54  31  41 S6        30.21F
6HR MIN TEMP:  23; 6HR MAX TEMP:  54;

ALLIANCE       SUNNY     53  27  36 SW9       30.19F
6HR MIN TEMP:  19; 6HR MAX TEMP:  53;

CHADRON        SUNNY     58  27  30 SW12      30.17F
6HR MIN TEMP:  23; 6HR MAX TEMP:  58;

GORDON         FAIR      55  31  40 SW13G21   30.18F
6HR MIN TEMP:  26; 6HR MAX TEMP:  55;

KIMBALL        SUNNY     53  27  36 W9        30.23F
SIDNEY         SUNNY     54  27  35 W8G18     30.24F
6HR MIN TEMP:  23; 6HR MAX TEMP:  54;

$$

NEZ057>060-069>072-079>082-251900-
SOUTHWEST NEBRASKA

CITY           SKY/WX    TMP DP  RH WIND       PRES   REMARKS
NORTH PLATTE   SUNNY     56  32  40 NW9G16    30.24F
6HR MIN TEMP:  37; 6HR MAX TEMP:  56;

IMPERIAL       SUNNY     53  29  39 W10G18    30.25F
6HR MIN TEMP:  32; 6HR MAX TEMP:  54;

LEXINGTON      SUNNY     53  36  51 N12       30.24F
MCCOOK         MOSUNNY   54  33  45 NW9G18    30.24F
6HR MIN TEMP:  38; 6HR MAX TEMP:  54;

OGALLALA       SUNNY     54  31  42 N9        30.24F
$$

NEZ005>010-023>029-035>040-094-251900-
NORTH CENTRAL NEBRASKA

CITY           SKY/WX    TMP DP  RH WIND       PRES   REMARKS
VALENTINE      SUNNY     56  25  30 VRB7      30.20F
6HR MIN TEMP:  31; 6HR MAX TEMP:  56;

AINSWORTH      SUNNY     53  29  39 W5        30.22F
BROKEN BOW     SUNNY     53  33  46 MISG      30.22F
6HR MIN TEMP:  38; 6HR MAX TEMP:  53;

O`NEILL        SUNNY     55  27  34 CALM      30.22F
ORD            SUNNY     53  30  41 N7        30.22F
6HR MIN TEMP:  39; 6HR MAX TEMP:  54;

THEDFORD       SUNNY     55  27  34 W8        30.23F
$$

NEZ041-046>049-061>064-073>077-083>087-251900-
SOUTH CENTRAL NEBRASKA

CITY           SKY/WX    TMP DP  RH WIND       PRES   REMARKS
GRAND ISLAND   CLOUDY    50  35  56 NE9       30.24F
6HR MIN TEMP:  40; 6HR MAX TEMP:  50; 6HR PCP:  0.01;

AURORA         CLOUDY    47  36  65 N9        30.24F
HASTINGS       CLOUDY    48  34  58 N13       30.25F
6HR MIN TEMP:  40; 6HR MAX TEMP:  48; 6HR PCP: TRACE;

HEBRON         CLOUDY    49  40  71 NE14      30.22F
HOLDREGE       MOSUNNY   51  36  57 N10G20    30.24F
KEARNEY        PTSUNNY   51  33  50 N9        30.25F
YORK             N/A     46  39  76 N8        30.24F
$$

NEZ011>018-030>034-042>045-251900-
NORTHEAST NEBRASKA

CITY           SKY/WX    TMP DP  RH WIND       PRES   REMARKS
NORFOLK        SUNNY     55  35  47 N10       30.20F
6HR MIN TEMP:  40; 6HR MAX TEMP:  55;

ALBION         SUNNY     53  33  46 N6        30.22F
BLAIR          MOSUNNY   51  38  60 N5        30.21F
COLUMBUS       MOSUNNY   51  38  60 CALM      30.23F
FREMONT        CLOUDY    55  37  51 CALM      30.22F
TEKAMAH        MOSUNNY   56  36  47 VRB7      30.21F
6HR MIN TEMP:  42; 6HR MAX TEMP:  56;

WAYNE          SUNNY     54  34  46 N5        30.21F
$$

NEZ050>053-065>068-078-088>093-251900-
SOUTHEAST NEBRASKA

CITY           SKY/WX    TMP DP  RH WIND       PRES   REMARKS
LINCOLN        CLOUDY    50  39  66 NE9       30.24F
6HR MIN TEMP:  43; 6HR MAX TEMP:  50; 6HR PCP: TRACE;

OMAHA EPPLEY   PTSUNNY   51  40  65 N3        30.21F
6HR MIN TEMP:  43; 6HR MAX TEMP:  51; 6HR PCP:  0.10;

BEATRICE       CLOUDY    49  42  78 NE10      30.21F
FALLS CITY     LGT RAIN  48  47  96 N9        30.18F
6HR MIN TEMP:  46; 6HR MAX TEMP:  48; 6HR PCP:  0.27;

NEBRASKA CITY  RAIN      46  44  90 N9        30.21F
PLATTSMOUTH    CLOUDY    47  41  79 CALM      30.22F
$$

NEZ044-045-051>053-067-251900-
OMAHA AREA

CITY           SKY/WX    TMP DP  RH WIND       PRES   REMARKS
OMAHA EPPLEY   PTSUNNY   51  40  65 N3        30.21F
6HR MIN TEMP:  43; 6HR MAX TEMP:  51; 6HR PCP:  0.10;

BLAIR          MOSUNNY   51  38  60 N5        30.21F
FREMONT        CLOUDY    55  37  51 CALM      30.22F
MILLARD        CLOUDY    51  40  66 NW6       30.22F
OFFUTT AFB     CLOUDY    49  38  65 NW6       30.21F
PLATTSMOUTH    CLOUDY    47  41  79 CALM      30.22F
WAHOO          CLOUDY    48  39  72 NW6       30.23F
$$



USA.gov is the U.S. government's official web portal to all federal, state and local government web resources and services.